Regional Weather Roundup
Issued by NWS

Home | Current Version | Previous Version | Graphics & Text | Print | Product List | Glossary On
Versions: 1 2 3 4 5 6 7 8 9 10 11 12 13 14 15 16 17 18 19 20 21 22 23 24 25 26 27
000
ASUS45 KBOU 241007
RWRCO

WEATHER ROUNDUP FOR COLORADO
NATIONAL WEATHER SERVICE DENVER/BOULDER CO
400 AM MDT MON APR 24 2017

NOTE: "FAIR" INDICATES FEW OR NO CLOUDS BELOW 12000 FEET WITH NO
SIGNIFICANT WEATHER AND/OR OBSTRUCTIONS TO VISIBILITY.

COZ001>005-013-030-031-241100-
...NORTHWEST COLORADO...

CITY           SKY/WX    TMP DP  RH WIND       PRES   REMARKS
CRAIG          CLOUDY    43  38  82 NW6       29.85R
HAYDEN         CLOUDY    41  36  81 W5        29.84S
MEEKER         CLOUDY    43  38  82 W3        29.83R
MOUNT WERNER   NOT AVBL
STEAMBOAT SPGS CLOUDY    40  37  89 CALM      29.83F
WALDEN           N/A     39  32  75 SW14      29.84F
$$

COZ006>008-011-241100-
...WEST CENTRAL VALLEYS...

CITY           SKY/WX    TMP DP  RH WIND       PRES   REMARKS
GRAND JUNCTION FAIR      50  33  52 VRB3      29.78R
MONTROSE       FAIR      53  27  36 SW7       29.83R
EAGLE          FAIR      44  34  67 E5        29.84F
RIFLE          FAIR      51  36  56 CALM      29.78S
DELTA          FAIR      56  28  33 SW7       29.79R
NUCLA          FAIR      52  28  40 SW7       29.87F
$$

COZ017>023-064>068-241100-
...SOUTHWEST COLORADO...

CITY           SKY/WX    TMP DP  RH WIND       PRES   REMARKS
DURANGO        FAIR      41  21  44 NW5       29.88R
CORTEZ         FAIR      41  27  57 E6        29.85F
PAGOSA SPRINGS FAIR      39  22  51 CALM      29.92R
TELLURIDE      FAIR      44  22  41 W6        29.98S
WOLF CREEK PAS FAIR      30  18  59 SW12G17   30.10S WCI  21
$$

COZ009-010-012-014-032>034-037-058>063-241100-
...CENTRAL COLORADO...

CITY           SKY/WX    TMP DP  RH WIND       PRES   REMARKS
ASPEN          CLOUDY    40  37  89 S13       29.85F
BUENA VISTA    FAIR      43  30  60 W10G17    29.87R
COPPER MTN     LGT SNOW  32  27  80 W21G29    29.98F WCI  20
BERTHOUD PASS  LGT SNOW  23  12  63 W35G41    29.93F VSB 1   WCI   4
COTTONWOOD PAS MOCLDY    41  27  56 W21G38    29.91S
GUNNISON       FAIR      45  31  58 N9        29.88R
KREMMLING      MOCLDY    45  37  76 E6        29.85F
LEADVILLE      FLURRIES  31  29  92 E3        29.92F
MONARCH PASS   MOCLDY    30  23  74 W35G40    30.09F WCI  14
SALIDA         FAIR      52  23  33 NW12      29.91F
SUNLIGHT       FAIR      28  27  93 SW10G20   29.98R WCI  19
WILKERSON PASS FAIR      32  23  69 W14G23    29.98R WCI  22
$$

COZ069>075-241100-
...SAN LUIS VALLEY/SANGRE DE CRISTO MOUNTAINS...

CITY           SKY/WX    TMP DP  RH WIND       PRES   REMARKS
ALAMOSA        FAIR      40  21  46 S10       29.86S
LA VETA PASS   FAIR      39  18  41 S23G44    30.04R
SAGUACHE       FAIR      43  27  52 W9        29.86F
$$

COZ035-036-038>040-241100-
...NORTHERN COLORADO FRONT RANGE...

CITY           SKY/WX    TMP DP  RH WIND       PRES   REMARKS
DENVER INTL AP MOCLDY    50  35  56 NE7       29.68R
DMNS CITY PARK   N/A     52  33  47 NE1G10    29.72R
AURORA         MOCLDY    46  37  72 SE6       29.70R
FRONT RANGE AP FAIR      50  36  57 N8        29.69F
ERIE MUNI ARPT FAIR      51  37  58 CALM      29.69R
BOULDER MUN AP FAIR      52  32  46 SW6       29.69R
CENTENNIAL     FAIR      48  31  51 CALM      29.71R
BROOMFIELD     FAIR      57  30  35 W32G47    29.73R
FORT COLLINS   FAIR      53  36  52 N8        29.66R
LONGMONT       FAIR      55  36  49 S3        29.70R
$$

COZ041-046-047-076>085-087-088-241100-
...PIKES PEAK/PALMER DIVIDE AND SOUTHERN FOOTHILLS...

CITY           SKY/WX    TMP DP  RH WIND       PRES   REMARKS
COLO. SPRINGS  FAIR      52  25  35 E9        29.69R
A. F. ACADEMY  FAIR      57  22  25 W24G37    29.69R
SCHRIEVER AFB  FAIR      52  28  39 S7        29.70R
ELLICOTT       FAIR     N/A N/A N/A SW12      29.67S
FALCON         FAIR      49  23  36 NW12G17   29.74R
FORT CARSON    FAIR      58  23  26 W16       29.66R
LIMON          FAIR      37  36  96 N8        29.63S
MONUMENT HILL  FAIR      48  21  34 NW12G17   29.76R
TRINIDAD       FAIR      51  29  42 W7        29.73F
$$

COZ042>045-048>051-090-091-241100-
...NORTHEAST COLORADO...

CITY           SKY/WX    TMP DP  RH WIND       PRES   REMARKS
GREELEY ARPT   FAIR      51  39  63 N15       29.65R
AKRON          FAIR      47  38  71 W17       29.60R
BURLINGTON     NOT AVBL
WRAY           NOT AVBL
STERLING       FAIR      52  41  66 N10       29.57S
HOLYOKE        FAIR      43  37  81 CALM      29.54R
FORT MORGAN    FAIR      52  36  54 N17       29.62R
$$

COZ086-089-092>099-241100-
...SOUTHEAST COLORADO...

CITY           SKY/WX    TMP DP  RH WIND       PRES   REMARKS
PUEBLO         FAIR      45  39  79 CALM      29.62S
LA JUNTA       FAIR      60  35  39 SW18      29.61S
LAMAR          FAIR      60  36  40 SW20      29.55S
SPRINGFIELD      N/A     52  33  48 S16       29.68F
$$




USA.gov is the U.S. government's official web portal to all federal, state and local government web resources and services.